Location: Denver
(39.7392°N, 104.9903°W)
Time: 16:07:12
(UTC-06:00)

ISS - Visible Passes

Search period start: 25 March 2019 00:00
Search period end: 04 April 2019 00:00
Orbit: 408 x 411 km, 51.6° (Epoch: 26 March)

Date Brightness Start Highest point End Pass type
(mag) Time Alt. Az. Time Alt. Az. Time Alt. Az.
25 Mar -1.0 21:01:46 10° NW 21:03:45 15° NNW 21:05:31 11° NNE visible
26 Mar -1.3 20:10:22 10° WNW 20:12:51 19° NNW 20:15:19 10° NNE visible
26 Mar -0.5 21:49:42 10° NNW 21:49:49 10° NNW 21:49:49 10° NNW visible
27 Mar -0.9 20:58:18 10° NNW 20:59:26 11° N 21:00:35 10° NNE visible
28 Mar -1.0 20:06:44 10° NW 20:08:26 13° NNW 20:10:07 10° NNE visible
28 Mar -0.6 21:45:03 10° NNW 21:45:25 11° N 21:45:25 11° N visible
29 Mar -0.9 20:54:22 10° NNW 20:55:07 11° N 20:55:52 10° NNE visible
30 Mar -1.0 20:03:10 10° NNW 20:04:04 11° N 20:04:58 10° NNE visible
30 Mar -0.9 21:39:49 10° NNW 21:40:48 13° N 21:40:48 13° N visible
31 Mar -1.2 20:49:20 10° NNW 20:50:45 12° N 20:52:04 10° NE visible
01 Apr -1.1 19:58:47 10° NNW 19:59:41 11° N 20:00:36 10° NNE visible
01 Apr -1.4 21:34:31 10° NNW 21:36:05 19° N 21:36:05 19° N visible
02 Apr -1.6 20:44:01 10° NNW 20:46:15 17° NNE 20:47:22 15° NE visible
02 Apr -0.2 22:19:58 10° NW 22:20:07 11° NW 22:20:07 11° NW visible
03 Apr -1.3 19:53:30 10° NNW 19:55:13 13° NNE 19:56:55 10° NE visible
03 Apr -2.2 21:29:16 10° NW 21:31:25 32° NNW 21:31:25 32° NNW visible
